STARLINK-3179, 51141

Orbit data source: Space-Track

STARLINK-3179, 51141 is a payload satellite owned by SpaceX/Seattle (US) in LEO that was launched on Wed, 19 Jan 2022 UTC via an FALCON 9 launch vehicle from the Air Force Eastern Test Range (AFETR). Payload-class satellites include a variety of spacecraft equipped with specific instruments for various scientific and technological missions. These include communications satellites like Starlink; space stations such as the ISS; scientific satellites like the Hubble; Earth observation satellites from companies like Planet Labs, Umbra, and HawkEye 360; GPS; miniature CubeSats for education and research; and military/defense satellites.

Loading next visibility...
Identifier
51141, 2022-005AP
Orbit
LEO
Country
Flag of USUS
Related business
Manufacturer
SpaceX/Seattle
Mission
Operational Commercial Communications
Bus & Motor
STARLINK, Unknown motor
Mass
297 kg wet, ~275 kg dry
Launch date (UTC)
2022-01-19 (4 years ago)
Launch vehicle
FALCON 9
Launch site
Air Force Eastern Test Range (AFETR)
Object type
Payload
Rocket body
Debris
Shape & HBR
Box + 1 Pan, 10.1 m
Radar Cross Section
13.562 m², Large (>1 m²)

Expand to show TLE details & history
Last TLE update: 2 days ago

TLE from 2 days ago
0 STARLINK-3179
1 51141U 22005AP  26171.44016513  .00000357  00000-0  40522-4 0  9994
2 51141  53.1590 197.7393 0001168  80.6940 279.4184 15.08836329244256
Epoch: 2026-06-20T10:33Z
TLE epoch observation values (Epoch: 2026-06-20T10:33:50.267Z)
Latitude
0.00003°
Longitude
130.62512°
Altitude
540.514 km
Speed
7.593 km/s
True Right ascension
13h 10m 57s
True Declination
0° 00' 00"
Sunlit
Object was in daylight at epoch
Visualization orbit readout
Latitude
Unknown
Longitude
Unknown
Altitude
Unknown
Speed
Unknown
Apparent Right ascension
Unknown
Apparent Declination
Unknown
Sunlit
N/A
Visualization observer readout
Local Sidereal Time
21:34:20
Azimuth
Unknown
Elevation
Unknown
Doppler factor
Unknown
Orbital elements
Apogee altitude
540.817 km
Perigee altitude
539.201 km
Semi-major axis
6,918.146 km
Eccentricity
0.00012
Inclination
53.159°
RAAN
197.7393°
Arg. of periapsis
80.694°
True anomaly
279.4052°
Mean anomaly
279.4184°
Eccentric anomaly
279.4118°
Mean motion
3.77189 °/min
Orbital period
95.44 mins
BSTAR
0.000040522
Loading maneuver chart data...
Computing Atmospheric mass density...
Loading historical data...
Loading historical data...
Loading historical data...
Loading historical data...
Loading historical data...
Loading historical data...
Loading historical data...

Documentation

Showing up to 5 results
|